TimeEDT,TemperatureF,Dew PointF,Humidity,Sea Level PressureIn,VisibilityMPH,Wind Direction,Wind SpeedMPH,Gust SpeedMPH,PrecipitationIn,Events,Conditions,WindDirDegrees,DateUTC
12:51 AM,39.9,34.0,79,30.21,10.0,South,8.1,-,N/A,,Clear,170,2012-10-09 04:51:00
1:51 AM,39.9,34.0,79,30.21,10.0,South,8.1,-,N/A,,Clear,170,2012-10-09 05:51:00
2:51 AM,39.9,34.0,79,30.19,10.0,SSE,10.4,-,N/A,,Clear,160,2012-10-09 06:51:00
3:51 AM,39.2,33.8,81,30.17,10.0,South,9.2,-,N/A,,Clear,170,2012-10-09 07:51:00
4:51 AM,39.0,34.0,82,30.18,10.0,South,10.4,-,N/A,,Clear,170,2012-10-09 08:51:00
5:51 AM,37.9,34.0,86,30.19,10.0,South,11.5,-,N/A,,Clear,170,2012-10-09 09:51:00
6:51 AM,37.9,34.0,86,30.19,10.0,South,10.4,-,N/A,,Clear,170,2012-10-09 10:51:00
7:51 AM,37.4,33.8,87,30.18,9.0,South,10.4,-,N/A,,Clear,170,2012-10-09 11:51:00
8:51 AM,41.0,35.1,79,30.20,10.0,South,10.4,-,N/A,,Clear,170,2012-10-09 12:51:00
9:51 AM,46.0,37.9,73,30.19,10.0,South,10.4,-,N/A,,Clear,170,2012-10-09 13:51:00
10:51 AM,-9999,-9999,N/A,30.17,-9999.0,North,-9999.0,-,N/A,,Unknown,0,2012-10-09 14:51:00
11:51 AM,53.1,37.0,55,30.17,10.0,South,10.4,-,N/A,,Clear,190,2012-10-09 15:51:00
12:51 PM,54.0,37.0,53,30.14,10.0,SSE,6.9,-,N/A,,Clear,160,2012-10-09 16:51:00
1:51 PM,55.9,34.0,44,30.09,10.0,South,11.5,-,N/A,,Clear,190,2012-10-09 17:51:00
2:51 PM,57.9,36.0,44,30.06,10.0,South,10.4,-,N/A,,Clear,190,2012-10-09 18:51:00
3:51 PM,59.0,34.0,39,30.05,10.0,SSW,12.7,-,N/A,,Clear,200,2012-10-09 19:51:00
4:51 PM,59.0,35.1,41,30.04,10.0,South,9.2,21.9,N/A,,Clear,190,2012-10-09 20:51:00
5:51 PM,57.2,33.8,41,30.02,10.0,SSW,11.5,-,N/A,,Clear,200,2012-10-09 21:51:00
6:51 PM,53.1,36.0,52,30.02,10.0,South,4.6,-,N/A,,Clear,190,2012-10-09 22:51:00
7:51 PM,48.9,36.0,61,30.01,10.0,SSE,4.6,-,N/A,,Clear,150,2012-10-09 23:51:00
8:51 PM,48.0,36.0,63,30.00,10.0,South,6.9,-,N/A,,Clear,170,2012-10-10 00:51:00
9:51 PM,48.0,37.0,66,29.99,10.0,South,8.1,-,N/A,,Clear,170,2012-10-10 01:51:00
10:51 PM,48.0,37.9,68,29.97,10.0,South,10.4,-,N/A,,Clear,180,2012-10-10 02:51:00
11:51 PM,48.0,37.9,68,29.96,10.0,South,10.4,-,N/A,,Clear,180,2012-10-10 03:51:00